Location: Miles
(41.4492°N, 81.6087°W)
Time: 23:59:21
(UTC+00:00)

Vanguard 3 - All Passes

Search period start: 11 September 2024 00:00
Search period end: 21 September 2024 00:00
Orbit: 507 x 3226 km, 33.3° (Epoch: 10 September)

Date Brightness Start Highest point End Pass type
(mag) Time Alt. Az. Time Alt. Az. Time Alt. Az.
11 Sep - 10:58:20 10° SSW 11:13:12 29° SE 11:26:58 10° E daylight
11 Sep - 13:09:03 10° SW 13:27:33 51° SSE 13:41:34 10° E daylight
11 Sep - 15:24:15 10° WSW 15:42:11 62° S 15:53:26 10° ESE daylight
11 Sep - 17:41:16 10° W 17:55:18 48° SSW 18:03:34 10° SE daylight
11 Sep - 19:59:33 10° W 20:05:46 17° SW 20:10:25 10° S daylight
12 Sep - 09:42:07 10° SSE 09:52:35 18° SE 10:03:07 10° E visible
12 Sep - 11:48:48 10° SSW 12:06:09 42° SSE 12:21:16 10° E daylight
12 Sep - 14:02:02 10° WSW 14:21:00 60° S 14:34:21 10° E daylight
12 Sep - 16:18:22 10° W 16:35:19 59° SSW 16:45:33 10° ESE daylight
12 Sep - 18:35:49 10° W 18:47:20 33° SW 18:54:34 10° SSE daylight
13 Sep - 10:30:07 10° SSW 10:45:01 30° SE 10:59:40 10° E visible
13 Sep - 12:40:43 10° SW 12:59:25 53° SSE 13:14:36 10° E daylight
13 Sep - 14:55:41 10° WSW 15:14:27 64° S 15:26:51 10° ESE daylight
13 Sep - 17:12:41 10° W 17:28:00 49° SSW 17:37:13 10° SE daylight
13 Sep - 19:31:18 10° W 19:38:44 19° SW 19:44:11 10° S daylight
14 Sep - 09:13:49 10° S 09:24:28 19° SE 09:35:40 10° E visible
14 Sep - 11:20:39 10° SW 11:37:51 43° SSE 11:53:57 10° E daylight
14 Sep - 13:33:37 10° WSW 13:52:55 62° S 14:07:29 10° E daylight
14 Sep - 15:49:45 10° W 16:07:40 60° SSW 16:19:01 10° ESE daylight
14 Sep - 18:07:18 10° W 18:20:04 34° SW 18:28:11 10° SSE daylight
15 Sep - 10:02:06 10° SSW 10:16:43 32° SE 10:32:03 10° E visible
15 Sep - 12:12:32 10° SW 12:31:06 55° SSE 12:47:23 10° E daylight
15 Sep - 14:27:11 10° WSW 14:46:28 65° S 15:00:03 10° ESE daylight
15 Sep - 16:44:02 10° W 17:00:26 50° SSW 17:10:43 10° SE daylight
15 Sep - 19:02:51 10° W 19:11:30 20° SW 19:17:47 10° S daylight
16 Sep - 08:45:48 10° S 08:56:18 19° SE 09:07:51 10° E visible
16 Sep - 10:52:39 10° SW 11:09:26 45° SSE 11:26:23 10° E daylight
16 Sep - 13:05:20 10° WSW 13:24:39 63° S 13:40:23 10° E daylight
16 Sep - 15:21:08 10° W 15:39:48 61° SSW 15:52:17 10° ESE daylight
16 Sep - 17:38:39 10° W 17:52:35 35° SW 18:01:38 10° SSE daylight
17 Sep - 09:34:17 10° SSW 09:48:21 32° SE 10:04:08 10° E visible
17 Sep - 11:44:30 10° SW 12:02:38 57° SSE 12:19:56 10° E daylight
17 Sep - 13:58:45 10° WSW 14:18:16 66° S 14:33:03 10° ESE daylight
17 Sep - 16:15:20 10° W 16:32:39 50° SSW 16:44:00 10° SE daylight
17 Sep - 18:34:15 10° W 18:44:03 21° SW 18:51:12 10° S daylight
18 Sep - 08:18:01 10° S 08:28:06 20° SE 08:39:43 10° E visible
18 Sep - 10:24:51 10° SW 10:40:57 46° SSE 10:58:33 10° E visible
18 Sep - 12:37:11 10° WSW 12:56:12 65° S 13:13:02 10° E daylight
18 Sep - 14:52:34 10° W 15:11:41 61° SSW 15:25:21 10° ESE daylight
18 Sep - 17:09:55 10° W 17:24:51 36° SW 17:34:55 10° SSE daylight
19 Sep - 09:06:38 10° SSW 09:19:59 33° SE 09:35:58 10° E visible
19 Sep - 11:16:37 10° SW 11:34:05 58° SSE 11:52:12 10° E daylight
19 Sep - 13:30:27 10° W 13:49:52 66° S 14:05:49 10° ESE daylight
19 Sep - 15:46:39 10° W 16:04:37 51° SSW 16:17:06 10° SE daylight
19 Sep - 18:05:32 10° W 18:16:23 22° SW 18:24:25 10° S daylight
20 Sep - 07:50:27 10° S 07:59:56 20° SE 08:11:20 10° E visible
20 Sep - 09:57:12 10° SW 10:12:26 47° SSE 10:30:25 10° E visible
20 Sep - 12:09:10 10° WSW 12:27:38 65° S 12:45:26 10° E daylight
20 Sep - 14:24:05 10° W 14:43:21 61° SSW 14:58:12 10° ESE daylight
20 Sep - 16:41:09 10° W 16:56:55 37° SW 17:07:59 10° SSE daylight
